[[{"header":{"parameterUnit":"m.s-1","parameterCategory":1,"la1":30.2991,"la2":30.254,"lo1":-89.0895,"lo2":-89.0444,"dy":0.0017,"dx":0.0017,"nx":28,"ny":28,"refTime":"2024-04-08T21:00:00:Z","depth":0,"parameterNumber":2,"parameterNumberName":"U-component_of_WINDS"},"data":[0,0,0,0,0,0,0,0,0,0,0,0,0,0,0,0,0,0,0,0,0,0,0,0,0,0,0,0,0,0,0,0,0,0,0,0,0,0,0,0,0,0,0,0,0,0,0,0,0,0,0,0,0,0,0,0,0,0,-4.4822,-4.4823,0,-4.4901,-4.4902,-4.4903,-4.4883,-4.4882,-4.488,-4.4879,-4.4959,-4.4962,-4.4966,0,0,0,0,0,0,0,0,0,0,0,0,0,-4.4654,-4.4657,-4.4822,-4.4823,-4.4824,-4.4901,-4.4902,-4.4903,-4.4883,-4.4882,-4.488,-4.4878,-4.4958,-4.4962,-4.4966,0,0,0,0,0,0,0,0,0,0,0,0,0,-4.4729,-4.4658,-4.4822,-4.4823,-4.4824,-4.4901,-4.4902,-4.4904,-4.4884,-4.4881,-4.4879,-4.4877,-4.4956,-4.4962,-4.4967,-4.5047,0,0,-4.4983,-4.4986,0,0,0,0,0,0,0,0,-4.4725,-4.4735,-4.4822,-4.4823,-4.4825,-4.488,-4.4872,-4.4952,-4.4884,-4.4861,-4.4879,-4.4876,-4.4934,-4.4942,-4.4961,-4.505,-4.5054,-4.4984,-4.4987,-4.4989,-4.4991,0,0,0,0,0,0,0,-4.472,-4.4732,-4.4853,-4.4823,-4.4825,-4.482,-4.4828,-4.4887,-4.491,-4.4863,-4.4862,-4.4872,-4.4935,-4.4956,-4.4963,-4.5055,-4.4984,-4.4988,-4.4992,-4.4994,-4.5214,-4.5217,0,0,0,0,0,0,-4.4714,-4.4728,-4.4851,-4.4856,-4.4768,-4.4825,-4.4834,-4.4865,-4.4909,-4.4914,-4.4873,-4.487,-4.4948,-4.4957,-4.4966,-4.5062,-4.4989,-4.4994,-4.4997,-4.5212,-4.5215,-4.5218,0,0,0,0,0,0,-4.471,-4.4725,-4.4848,-4.4792,-4.4807,-4.4831,-4.4865,-4.4867,-4.4889,-4.4917,-4.4921,-4.4891,-4.4947,-4.4958,-4.5027,-4.5064,-4.4997,-4.5002,-4.5209,-4.5213,-4.5216,-4.5254,0,0,0,0,0,0,-4.4705,-4.4724,-4.4754,-4.4792,-4.481,-4.4907,-4.4867,-4.4871,-4.4898,-4.4895,-4.4935,-4.4939,-4.4946,-4.5019,-4.5032,-4.5071,-4.5006,-4.5205,-4.521,-4.5215,-4.525,-4.5259,-4.5267,0,0,0,0,0,-4.4699,-4.4761,-4.4755,-4.477,-4.4848,-4.4909,-4.4919,-4.4926,-4.4901,-4.4932,-4.4951,-4.4938,-4.5059,-4.5026,-4.5041,-4.5081,-4.5203,-4.5209,-4.5215,-4.5246,-4.5257,-4.5267,0,0,0,0,0,0,-4.4725,-4.4766,-4.476,-4.4836,-4.487,-4.4906,-4.4944,-4.4938,-4.4978,-4.4973,-4.498,-4.4989,-4.5059,-4.5078,-4.504,-4.5162,-4.5127,-4.5136,-4.5146,-4.5157,-4.5166,-4.5159,-4.501,0,0,0,0,0,-4.474,-4.4787,-4.482,-4.4884,-4.4901,-4.492,-4.4947,-4.4949,-4.4984,-4.4998,-4.5021,-4.5055,-4.5101,-4.513,-4.5174,-4.5254,-4.5262,-4.5289,-4.5298,-4.5305,-4.5312,-4.5355,-4.5368,-4.5237,-4.5237,-4.5237,0,0,-4.477,-4.4799,-4.4827,-4.489,-4.4916,-4.4963,-4.4932,-4.4983,-4.5019,-4.5005,-4.5071,-4.509,-4.5129,-4.5203,-4.5237,-4.5221,-4.535,-4.5312,-4.5318,-4.5321,-4.5363,-4.5375,-4.5386,-4.5241,-4.524,-4.524,0,0,-4.485,-4.4876,-4.4932,-4.496,-4.5,-4.5013,-4.5027,-4.5065,-4.5077,-4.5143,-4.5134,-4.5177,-4.5256,-4.5284,-4.5308,-4.5402,-4.5391,-4.5416,-4.546,-4.5502,-4.5512,-4.5522,-4.5554,-4.5565,-4.5423,-4.5423,-4.5424,0,-4.4882,-4.4954,-4.4962,-4.5015,-4.5042,-4.5034,-4.5091,-4.5117,-4.517,-4.5189,-4.5171,-4.527,-4.5295,-4.5376,-4.5399,-4.542,-4.5435,-4.541,-4.5511,-4.552,-4.5528,-4.5559,-4.5571,-4.5426,-4.5426,-4.5425,-4.5425,0,-4.4991,-4.5041,-4.5082,-4.5133,-4.5166,-4.5221,-4.5237,-4.527,-4.5271,-4.5285,-4.5354,-4.5385,-4.5435,-4.5455,-4.5456,-4.5536,-4.5525,-4.5509,-4.5474,-4.5543,-4.5572,-4.5584,-4.543,-4.5429,-4.5428,-4.5427,0,0,-4.5085,-4.5143,-4.5157,-4.5181,-4.5226,-4.5265,-4.532,-4.537,-4.5397,-4.5435,-4.548,-4.5549,-4.5534,-4.5562,-4.5567,-4.5605,-4.5676,-4.5584,-4.5585,-4.5598,-4.5766,-4.5776,-4.5789,-4.5671,-4.5673,-4.5675,-4.5762,0,-4.5167,-4.5264,-4.5274,-4.536,-4.5407,-4.5401,-4.5449,-4.5482,-4.5499,-4.5541,-4.5559,-4.5607,-4.5585,-4.5602,-4.5639,-4.5659,-4.5709,-4.5653,-4.5712,-4.5714,-4.57,-4.5805,-4.5815,-4.5896,-4.5773,-4.5775,-4.5777,0,-4.5275,-4.5316,-4.5407,-4.5447,-4.5467,-4.551,-4.5556,-4.5597,-4.5635,-4.5645,-4.5677,-4.5678,-4.5735,-4.5701,-4.5779,-4.5741,-4.5767,-4.5781,-4.5784,-4.5787,-4.5748,-4.5809,-4.5922,-4.5933,-4.5795,-4.5794,-4.5792,0,-4.5333,-4.5412,-4.5476,-4.5497,-4.5545,-4.5576,-4.5597,-4.5633,-4.5663,-4.5704,-4.5724,-4.5771,-4.5797,-4.5834,-4.5847,-4.5821,-4.5925,-4.5892,-4.5934,-4.5934,-4.5953,-4.5952,-4.6069,-4.5974,-4.5974,-4.5974,-4.5974,0,-4.5422,-4.5477,-4.5503,-4.5542,-4.5605,-4.5617,-4.5678,-4.5699,-4.5731,-4.5775,-4.5774,-4.5815,-4.5831,-4.5875,-4.5886,-4.595,-4.5962,-4.597,-4.5972,-4.5969,-4.5968,-4.5984,-4.5978,-4.5977,-4.5976,-4.5976,-4.5975,0,-4.5495,-4.5515,-4.5585,-4.5626,-4.5638,-4.5682,-4.5717,-4.5755,-4.5773,-4.5828,-4.5842,-4.5868,-4.592,-4.5938,-4.6001,-4.6008,-4.6081,-4.608,-4.6068,-4.6068,-4.6108,-4.6103,-4.6238,-4.6256,-4.6151,-4.6152,-4.6153,0,-4.5549,-4.5592,-4.5639,-4.5668,-4.5691,-4.5738,-4.5769,-4.5783,-4.5815,-4.5863,-4.5896,-4.5948,-4.5989,-4.6072,-4.6097,-4.6146,-4.6144,-4.6188,-4.6151,-4.6146,-4.6142,-4.6138,-4.6142,-4.6194,-4.6195,-4.6196,-4.6196,0,-4.5643,-4.5651,-4.5695,-4.5743,-4.578,-4.5818,-4.5856,-4.588,-4.59,-4.5936,-4.5989,-4.6022,-4.6087,-4.6138,-4.6188,-4.621,-4.6207,-4.6209,-4.622,-4.6216,-4.6207,-4.6211,-4.6085,-4.6204,-4.6204,-4.6203,-4.6203,-4.6202,-4.5707,-4.5745,-4.5784,-4.5833,-4.5863,-4.5899,-4.5937,-4.596,-4.6004,-4.6058,-4.6065,-4.6121,-4.616,-4.6227,-4.6253,-4.6298,-4.6285,-4.6303,-4.6307,-4.631,-4.6312,-4.6202,-4.6307,-4.6307,-4.6307,-4.6306,-4.6306,0,-4.5799,-4.5825,-4.587,-4.5923,-4.5962,-4.5957,-4.5999,-4.6031,-4.6082,-4.6119,-4.616,-4.6222,-4.6272,-4.6302,-4.6353,-4.6383,-4.6383,-4.6396,-4.6392,-4.6397,-4.6321,-4.6305,-4.6395,-4.6395,-4.6395,-4.6395,-4.6395,-4.6395,-4.5852,-4.5915,-4.5928,-4.6007,-4.6032,-4.6088,-4.6112,-4.6145,-4.6174,-4.6243,-4.6285,-4.6305,-4.6339,-4.6393,-4.6439,-4.6446,-4.6464,-4.6478,-4.6484,-4.6412,-4.6403,-4.6394,-4.6378,-4.6482,-4.6482,-4.6556,-4.6557,-4.6557]},{"header":{"parameterUnit":"m.s-1","parameterCategory":1,"la1":30.2991,"la2":30.254,"lo1":-89.0895,"lo2":-89.0444,"dy":0.0017,"dx":0.0017,"nx":28,"ny":28,"refTime":"2024-04-08T21:00:00:Z","depth":0,"parameterNumber":3,"parameterNumberName":"V-component_of_WINDS"},"data":[0,0,0,0,0,0,0,0,0,0,0,0,0,0,0,0,0,0,0,0,0,0,0,0,0,0,0,0,0,0,0,0,0,0,0,0,0,0,0,0,0,0,0,0,0,0,0,0,0,0,0,0,0,0,0,0,0,0,2.4448,2.4448,0,2.4444,2.4444,2.4444,2.4427,2.4426,2.4426,2.4426,2.442,2.4421,2.4421,0,0,0,0,0,0,0,0,0,0,0,0,0,2.4442,2.4442,2.4448,2.4448,2.4448,2.4444,2.4444,2.4444,2.4427,2.4426,2.4426,2.4425,2.442,2.4421,2.4421,0,0,0,0,0,0,0,0,0,0,0,0,0,2.4442,2.4442,2.4448,2.4439,2.4438,2.4444,2.4444,2.4444,2.4427,2.4426,2.4426,2.4425,2.442,2.4421,2.4421,2.4435,0,0,2.4422,2.4422,0,0,0,0,0,0,0,0,2.4442,2.4442,2.444,2.4439,2.4438,2.4435,2.444,2.4441,2.4427,2.4431,2.4426,2.4425,2.4426,2.4426,2.4426,2.4435,2.4434,2.4422,2.4422,2.4422,2.4422,0,0,0,0,0,0,0,2.4442,2.4442,2.4446,2.444,2.4439,2.4435,2.4435,2.444,2.4432,2.4431,2.4429,2.4429,2.4425,2.4426,2.4426,2.4434,2.4422,2.4422,2.4423,2.4423,2.4458,2.4458,0,0,0,0,0,0,2.4443,2.4442,2.4446,2.4446,2.4439,2.4436,2.4435,2.4437,2.4432,2.443,2.443,2.4429,2.4426,2.4426,2.4426,2.4444,2.4422,2.4423,2.4423,2.4457,2.4458,2.4458,0,0,0,0,0,0,2.4443,2.4444,2.4446,2.4444,2.4444,2.4437,2.4439,2.4437,2.4438,2.4431,2.4429,2.4432,2.4425,2.4425,2.4434,2.4443,2.4423,2.4423,2.4456,2.4457,2.4458,2.4478,0,0,0,0,0,0,2.4443,2.4444,2.4448,2.4444,2.4444,2.4454,2.4439,2.4437,2.4438,2.4437,2.4433,2.4431,2.4425,2.4433,2.4434,2.4443,2.4423,2.4455,2.4456,2.4458,2.4477,2.448,2.4483,0,0,0,0,0,2.4443,2.4453,2.4448,2.4449,2.445,2.4454,2.4454,2.4447,2.4439,2.4444,2.4441,2.4431,2.4442,2.4434,2.4435,2.4444,2.4454,2.4456,2.4458,2.4475,2.4479,2.4483,0,0,0,0,0,0,2.4457,2.4452,2.4447,2.4456,2.4456,2.4452,2.4457,2.4451,2.4452,2.4451,2.4441,2.444,2.4451,2.4448,2.4439,2.4459,2.4447,2.4449,2.446,2.4464,2.4467,2.4467,2.4424,0,0,0,0,0,2.4462,2.4466,2.4461,2.447,2.447,2.4464,2.4466,2.4461,2.446,2.4459,2.4456,2.4455,2.4459,2.4461,2.4464,2.4477,2.4477,2.4484,2.4487,2.449,2.4491,2.45,2.4504,2.4464,2.4464,2.4464,0,0,2.447,2.4468,2.4471,2.4473,2.4472,2.4477,2.4464,2.4469,2.4474,2.446,2.4468,2.4466,2.4465,2.4477,2.4482,2.4475,2.4503,2.4492,2.4494,2.4494,2.4503,2.4506,2.451,2.4465,2.4465,2.4465,0,0,2.4489,2.4487,2.4495,2.4496,2.4496,2.4492,2.4494,2.4492,2.449,2.4499,2.449,2.4495,2.45,2.4501,2.4502,2.4526,2.4518,2.4527,2.4542,2.4551,2.4555,2.4557,2.4567,2.4571,2.4529,2.4529,2.4529,0,2.4499,2.4507,2.45,2.4508,2.451,2.4499,2.4509,2.4509,2.451,2.4512,2.4505,2.4514,2.4512,2.4525,2.4531,2.4532,2.4535,2.4527,2.4555,2.4557,2.456,2.4569,2.4573,2.453,2.453,2.4529,2.4529,0,2.4521,2.4527,2.4534,2.4536,2.4539,2.4547,2.4543,2.4547,2.4542,2.454,2.455,2.4549,2.4552,2.4555,2.455,2.4568,2.4564,2.4556,2.4544,2.4565,2.4574,2.4577,2.4531,2.4531,2.4531,2.453,0,0,2.4546,2.4548,2.455,2.4553,2.4553,2.4558,2.4567,2.4572,2.4576,2.4578,2.4586,2.4593,2.4586,2.4588,2.4583,2.4591,2.4612,2.4582,2.4582,2.4589,2.4635,2.4641,2.4645,2.4608,2.4608,2.4609,2.4635,0,2.4565,2.458,2.4576,2.4591,2.4598,2.4591,2.4599,2.4601,2.46,2.4606,2.4604,2.461,2.46,2.4602,2.4609,2.4608,2.4622,2.4606,2.4616,2.4616,2.4616,2.465,2.4656,2.4681,2.4639,2.4639,2.464,0,2.4588,2.4593,2.4609,2.4612,2.4615,2.4622,2.4628,2.4633,2.4637,2.4636,2.4639,2.4634,2.4644,2.4632,2.4647,2.4637,2.4641,2.4641,2.4642,2.4643,2.4629,2.4652,2.4688,2.4692,2.4645,2.4644,2.4644,0,2.4606,2.4617,2.4629,2.4631,2.4634,2.464,2.4642,2.4644,2.4649,2.4654,2.4657,2.4663,2.4666,2.4672,2.4669,2.466,2.4685,2.4672,2.4685,2.4685,2.469,2.469,2.4728,2.4692,2.4692,2.4692,2.4692,0,2.4628,2.4638,2.4637,2.4645,2.4657,2.4654,2.4667,2.4668,2.4671,2.4679,2.4673,2.4681,2.4676,2.4684,2.4682,2.4696,2.4697,2.4697,2.4697,2.4698,2.4698,2.47,2.4699,2.4693,2.4693,2.4692,2.4692,0,2.465,2.4649,2.4662,2.4666,2.4667,2.4676,2.4679,2.4687,2.4687,2.4698,2.47,2.47,2.4709,2.4708,2.4717,2.4716,2.4734,2.4731,2.4733,2.4733,2.4746,2.4745,2.4787,2.4794,2.4753,2.4753,2.4754,0,2.4663,2.4672,2.4677,2.4683,2.4686,2.4694,2.47,2.4698,2.4703,2.471,2.4717,2.4727,2.4734,2.475,2.475,2.4759,2.4756,2.4771,2.4757,2.476,2.4758,2.4758,2.4759,2.4773,2.4774,2.4774,2.4774,0,2.4688,2.4689,2.4696,2.4706,2.4712,2.4719,2.4725,2.473,2.4729,2.4736,2.4746,2.4752,2.4764,2.4774,2.4783,2.4785,2.478,2.4779,2.4783,2.4784,2.4786,2.4786,2.4741,2.4777,2.4777,2.4777,2.4777,2.4777,2.4707,2.4715,2.4722,2.4731,2.4737,2.4743,2.4752,2.4754,2.4763,2.4773,2.4772,2.4784,2.479,2.4801,2.4805,2.4815,2.481,2.4815,2.4816,2.4817,2.482,2.4784,2.4817,2.4817,2.4816,2.4816,2.4816,0,2.4733,2.4737,2.4747,2.4757,2.4765,2.4761,2.4769,2.4776,2.4788,2.4794,2.4803,2.4816,2.4827,2.483,2.4841,2.4848,2.4847,2.4851,2.4851,2.4852,2.4823,2.482,2.4853,2.4853,2.4853,2.4853,2.4853,2.4853,2.4747,2.4762,2.4764,2.4782,2.4786,2.4799,2.4804,2.4811,2.4817,2.4833,2.4842,2.4845,2.4851,2.4862,2.4873,2.4873,2.4878,2.4884,2.4884,2.4857,2.4853,2.485,2.4846,2.4885,2.4885,2.4912,2.4912,2.4912]}]]